Location: Bergnerzell
(49.1816°N, 10.2565°E)
Time: 21:38:01
(UTC+00:00)

Cosmos 1025 Rocket - Pass Details

Date: 23 May 2024
Orbit: 590 x 614 km, 82.5° (Epoch: 14 June)

Event Time Altitude Azimuth Distance (km) Brightness Sun altitude
Rises 02:39:35 0° 175° (S) 2,869 6.1 -6.8°
Reaches altitude 10° 02:41:50 10° 170° (S) 1,971 5.3 -6.5°
Maximum altitude 02:46:04 53° 95° (E) 764 3.9 -6.0°
Drops below altitude 10° 02:50:21 10° 19° (NNE) 1,986 6.7 -5.5°
Sets 02:52:37 0° 14° (NNE) 2,894 7.5 -5.2°
